Location: ???????????
(54.5822°N, 39.1075°E)
Time: 16:51:55
(UTC+00:00)

COSMOS 2428 - Pass Details

Date: 19 May 2025
Orbit: 845 x 853 km, 70.9° (Epoch: 20 June)

Event Time Altitude Azimuth Distance (km) Brightness Sun altitude
Rises 22:56:49 0° 324° (NW) 3,435 6.3 -12.6°
Reaches altitude 10° 22:59:21 10° 319° (NW) 2,495 5.5 -12.5°
Maximum altitude 23:04:48 46° 248° (WSW) 1,130 3.1 -12.1°
Enters shadow 23:09:53 12° 177° (S) 2,361 4.5 -11.8°
